User: anonymous   Login
Location: Unspecified
(0.0000°N, 0.0000°E)
Time: 04:46:35
(UTC+02:00)
Language:

Cosmos 1072 Rocket - Orbit

View from above orbital plane
View from above orbital plane
View from above satellite
View from above satellite

Ground track
Ground track

The orbit data is extracted from the following two-line orbital elements,

1 11239U 79003B   14296.53574862  .00000205  00000-0  19590-3 0  3838
2 11239 082.9373 086.7865 0040447 214.0330 212.0786 13.75743108794805
Epoch (UTC): 23 October 2014 12:51:28
Eccentricity: 0.0040447
inclination: 82.9373°
perigee height: 949 km
apogee height: 1009 km
right ascension of ascending node: 86.7865°
argument of perigee: 214.0330°
revolutions per day: 13.75743108
mean anomaly at epoch: 212.0786°
orbit number at epoch: 79480

The dashed part of the orbit path shows where the satellite is in the earth's shadow,  

DLR